Weather History for Augusta, GA

Change the Weather History Date:

Sunday, April 7, 2013

  Actual Average Record
Temperature  
Mean Temperature 62 °F -  
Max Temperature 76 °F 72 °F 86 °F (1999)
Min Temperature 48 °F 52 °F 34 °F (2007)
Degree Days  
Heating Degree Days 3    
Month to date heating degree days 54  
Growing Degree Days 12 (Base 50)    
Moisture  
Dew Point 47 °F    
Average Humidity 60    
Maximum Humidity 86    
Minimum Humidity 36    
Precipitation  
Precipitation 0.00 in - - ()
Month to date precipitation 0.97  
Year to date precipitation 12.96  
Sea Level Pressure  
Sea Level Pressure 30.17 in    
Wind  
Wind Speed 7 mph (SE)    
Max Wind Speed 14 mph    
Max Gust Speed 18 mph    
Visibility 10 miles    
Events      
Averages and records for this station are not official NWS values.
T = Trace of Precipitation, MM = Missing Value Source: NWS Daily Summary

Daily Weather History Graph

Daily Weather History Graph

Search for Another Location

Airport:

Trip Planner

Search our weather history database for the weather conditions in past years. The results will help you decide how hot, cold, wet, or windy it might be!

Date:

Astronomy

Apr. 07, 2013 Rise Set
Actual Time 7:07 AM EDT 7:53 PM EDT
Civil Twilight 6:42 AM EDT 8:18 PM EDT
Nautical Twilight 6:12 AM EDT 8:48 PM EDT
Astronomical Twilight 5:42 AM EDT 9:18 PM EDT
Moon 5:16 AM EDT (4/7) 5:30 PM EDT (4/7)
Length of Visible Light 13h 36m
Length of Day
12h 45m
Waning Crescent, 8% of the Moon is Illuminated
Apr 7
Waning Crescent
Apr 10
New
Apr 18
First Quarter
Apr 25
Full
May 2
Last Quarter

Hourly Weather History & Observations

Time (EDT) Temp. Dew Point Humidity Pressure Visibility Wind Dir Wind Speed Gust Speed Precip Events Conditions
12:53 AM 55.0 °F 39.9 °F 57% 30.21 in 10.0 mi SE 3.5 mph - N/A   Clear
1:53 AM 55.0 °F 39.9 °F 57% 30.20 in 10.0 mi SE 5.8 mph - N/A   Clear
2:53 AM 53.1 °F 43.0 °F 69% 30.19 in 10.0 mi ESE 5.8 mph - N/A   Clear
3:53 AM 51.1 °F 44.1 °F 77% 30.18 in 10.0 mi ESE 4.6 mph - N/A   Clear
4:53 AM 50.0 °F 44.1 °F 80% 30.18 in 10.0 mi ESE 5.8 mph - N/A   Clear
5:53 AM 48.9 °F 44.1 °F 83% 30.19 in 10.0 mi ESE 4.6 mph - N/A   Clear
6:53 AM 48.0 °F 45.0 °F 89% 30.20 in 10.0 mi East 3.5 mph - N/A   Clear
7:53 AM 50.0 °F 46.9 °F 89% 30.22 in 7.0 mi East 4.6 mph - N/A   Scattered Clouds
8:53 AM 51.1 °F 46.9 °F 86% 30.24 in 9.0 mi ESE 6.9 mph - N/A   Scattered Clouds
9:53 AM 57.0 °F 48.9 °F 74% 30.24 in 10.0 mi SE 8.1 mph - N/A   Partly Cloudy
10:53 AM 60.1 °F 50.0 °F 69% 30.25 in 10.0 mi SSE 6.9 mph - N/A   Partly Cloudy
11:53 AM 68.0 °F 50.0 °F 52% 30.23 in 10.0 mi Variable 6.9 mph - N/A   Clear
12:53 PM 69.1 °F 51.1 °F 53% 30.21 in 10.0 mi South 8.1 mph - N/A   Mostly Cloudy
1:53 PM 71.1 °F 50.0 °F 47% 30.18 in 10.0 mi Variable 3.5 mph - N/A   Scattered Clouds
2:53 PM 73.0 °F 48.9 °F 42% 30.15 in 10.0 mi WSW 5.8 mph - N/A   Scattered Clouds
3:53 PM 75.0 °F 48.0 °F 38% 30.12 in 10.0 mi SSW 11.5 mph 18.4 mph N/A   Mostly Cloudy
4:53 PM 75.9 °F 46.9 °F 36% 30.10 in 10.0 mi South 13.8 mph - N/A   Scattered Clouds
5:53 PM 75.0 °F 48.0 °F 38% 30.10 in 10.0 mi SSE 8.1 mph - N/A   Mostly Cloudy
6:53 PM 73.9 °F 46.9 °F 38% 30.10 in 10.0 mi SSW 10.4 mph - N/A   Mostly Cloudy
7:53 PM 72.0 °F 48.9 °F 44% 30.10 in 10.0 mi South 5.8 mph - N/A   Mostly Cloudy
8:53 PM 70.0 °F 50.0 °F 49% 30.12 in 10.0 mi SSE 5.8 mph - N/A   Scattered Clouds
9:53 PM 68.0 °F 52.0 °F 56% 30.14 in 10.0 mi SSE 9.2 mph - N/A   Mostly Cloudy
10:53 PM 66.0 °F 51.1 °F 59% 30.14 in 10.0 mi SSE 6.9 mph - N/A   Mostly Cloudy
11:53 PM 64.0 °F 52.0 °F 65% 30.14 in 10.0 mi SSE 5.8 mph - N/A   Mostly Cloudy